| time (UTC) | temp F | wind direction | speed MPH | gust MPH | rain 1hr in | rain 24hr in | rain mn in | humidity % | barometer mb |
| 20260505021551 | 42 | 253 | 0.0 | 3.0 | 0.00 | 0.12 | 0.00 | 1 | 1001.9 |
| 20260505020049 | 42 | 286 | 0.0 | 2.0 | 0.00 | 0.12 | 0.00 | 1 | 1001.9 |
| 20260505014533 | 42 | 246 | 0.0 | 1.0 | 0.00 | 0.12 | 0.00 | 1 | 1001.8 |
| 20260505013029 | 42 | 229 | 0.0 | 0.0 | 0.00 | 0.12 | 0.00 | 1 | 1001.8 |
| 20260505011524 | 42 | 89 | 0.0 | 1.0 | 0.00 | 0.12 | 0.00 | 1 | 1002.0 |
| 20260505010019 | 42 | 100 | 0.0 | 3.0 | 0.00 | 0.12 | 0.00 | 1 | 1002.0 |
| 20260505004517 | 42 | 292 | 0.0 | 3.0 | 0.00 | 0.12 | 0.00 | 1 | 1001.9 |
| 20260505003010 | 42 | 80 | 0.0 | 3.0 | 0.00 | 0.12 | 0.00 | 1 | 1001.8 |
| 20260505001506 | 42 | 307 | 0.0 | 5.0 | 0.00 | 0.12 | 0.00 | 1 | 1001.9 |
| 20260505000002 | 42 | 294 | 0.0 | 6.0 | 0.00 | 0.12 | 0.00 | 1 | 1002.1 |
| 20260504234558 | 42 | 261 | 0.0 | 5.0 | 0.00 | 0.12 | 0.00 | 1 | 1002.1 |
| 20260504233055 | 43 | 172 | 0.0 | 7.0 | 0.00 | 0.12 | 0.00 | 1 | 1002.0 |
| 20260504231550 | 43 | 261 | 0.0 | 2.0 | 0.00 | 0.12 | 0.00 | 1 | 1001.9 |
| 20260504230103 | 43 | 329 | 0.0 | 4.0 | 0.00 | 0.12 | 0.00 | 1 | 1002.0 |
| 20260504224556 | 43 | 307 | 0.0 | 3.0 | 0.00 | 0.12 | 0.00 | 1 | 1002.2 |
| 20260504223035 | 43 | 92 | 0.0 | 3.0 | 0.00 | 0.12 | 0.00 | 1 | 1002.2 |
| 20260504221530 | 43 | 283 | 0.0 | 4.0 | 0.00 | 0.12 | 0.00 | 1 | 1002.3 |
| 20260504220026 | 43 | 257 | 0.0 | 5.0 | 0.00 | 0.12 | 0.00 | 1 | 1002.4 |
| 20260504214535 | 43 | 350 | 0.0 | 3.0 | 0.00 | 0.12 | 0.00 | 1 | 1002.3 |
| 20260504213018 | 44 | 302 | 0.0 | 0.0 | 0.00 | 0.12 | 0.00 | 1 | 1002.1 |
| 20260504211513 | 44 | 310 | 0.0 | 2.0 | 0.00 | 0.12 | 0.00 | 1 | 1002.2 |
| 20260504210012 | 45 | 155 | 0.0 | 0.0 | 0.00 | 0.12 | 0.00 | 1 | 1002.2 |
| 20260504204511 | 45 | 225 | 0.0 | 3.0 | 0.00 | 0.12 | 0.12 | 1 | 1002.2 |
| 20260504203004 | 45 | 269 | 0.0 | 3.0 | 0.00 | 0.12 | 0.12 | 1 | 1002.1 |
| 20260504201610 | 45 | 272 | 0.0 | 2.0 | 0.00 | 0.12 | 0.12 | 1 | 1002.1 |
| 20260504194550 | 46 | 251 | 0.0 | 1.0 | 0.00 | 0.12 | 0.12 | 1 | 1002.0 |
| 20260504193049 | 45 | 288 | 0.0 | 0.0 | 0.00 | 0.12 | 0.12 | 1 | 1001.9 |
| 20260504191547 | 45 | 248 | 0.0 | 0.0 | 0.00 | 0.12 | 0.12 | 1 | 1001.8 |
| 20260504190039 | 45 | 12 | 0.0 | 0.0 | 0.00 | 0.12 | 0.12 | 1 | 1001.8 |
| 20260504184538 | 46 | 305 | 0.0 | 0.0 | 0.00 | 0.12 | 0.12 | 1 | 1001.8 |
| 20260504183034 | 46 | 278 | 0.0 | 0.0 | 0.00 | 0.12 | 0.12 | 1 | 1001.7 |
| 20260504181524 | 47 | 290 | 0.0 | 0.0 | 0.00 | 0.12 | 0.12 | 1 | 1001.6 |
| 20260504180022 | 47 | 265 | 0.0 | 0.0 | 0.00 | 0.12 | 0.12 | 1 | 1001.4 |
| 20260504174515 | 48 | 35 | 0.0 | 0.0 | 0.00 | 0.12 | 0.12 | 1 | 1001.3 |
| 20260504173011 | 49 | 300 | 0.0 | 0.0 | 0.00 | 0.12 | 0.12 | 1 | 1001.2 |
| 20260504171506 | 49 | 268 | 0.0 | 0.0 | 0.00 | 0.12 | 0.12 | 1 | 1001.2 |
| 20260504160106 | 51 | 273 | 0.0 | 0.0 | 0.00 | 0.12 | 0.12 | 1 | 1000.9 |
| 20260504081518 | 55 | 194 | 0.0 | 0.0 | 0.00 | 0.00 | 0.00 | 58 | 1003.7 |
| 20260504050014 | 48 | 181 | 0.0 | 0.0 | 0.00 | 0.00 | 0.00 | 1 | 1004.8 |
| 20260504044512 | 47 | 181 | 0.0 | 0.0 | 0.00 | 0.00 | 0.00 | 1 | 1004.9 |
| 20260504043010 | 46 | 181 | 0.0 | 0.0 | 0.00 | 0.00 | 0.00 | 1 | 1005.2 |
| 20260504041601 | 44 | 181 | 0.0 | 0.0 | 0.00 | 0.00 | 0.00 | 1 | 1005.3 |
| 20260504040057 | 44 | 181 | 0.0 | 0.0 | 0.00 | 0.00 | 0.00 | 1 | 1005.3 |
| 20260504034553 | 44 | 181 | 0.0 | 0.0 | 0.00 | 0.00 | 0.00 | 1 | 1005.4 |
| 20260504033047 | 44 | 181 | 0.0 | 0.0 | 0.00 | 0.00 | 0.00 | 1 | 1005.4 |
| 20260504031550 | 44 | 181 | 0.0 | 0.0 | 0.00 | 0.00 | 0.00 | 1 | 1005.4 |
| 20260504030055 | 44 | 181 | 0.0 | 0.0 | 0.00 | 0.00 | 0.00 | 1 | 1005.6 |
| 20260504024538 | 45 | 181 | 0.0 | 0.0 | 0.00 | 0.00 | 0.00 | 1 | 1005.6 |
| 20260504023030 | 45 | 181 | 0.0 | 0.0 | 0.00 | 0.00 | 0.00 | 1 | 1005.7 |